Regional Weather Roundup
Issued by NWS Newport/Morehead, NC

Current Version | Previous Version | Graphics & Text | Print | Product List | Glossary On
Versions: 1 2 3 4 5 6 7 8 9 10 11 12 13 14 15 16 17 18 19 20 21 22 23 24 25 26 27 28 29 30 31 32 33 34 35 36 37 38 39 40 41 42 43 44 45 46 47 48 49 50
000 ASUS42 KMHX 040313 RWRMHX WEATHER ROUNDUP FOR EASTERN NORTH CAROLINA NATIONAL WEATHER SERVICE NEWPORT/MOREHEAD CITY NC 1100 PM EDT MON AUG 03 2015 NOTE: "FAIR" INDICATES FEW OR NO CLOUDS BELOW 12,000 FEET WITH NO SIGNIFICANT WEATHER AND/OR OBSTRUCTIONS TO VISIBILITY NCZ015>017-031-032-045>047-102-103-040400- NORTH COAST CITY SKY/WX TMP DP RH WIND PRES REMARKS EDENTON N/A 77 71 81 S8 29.96S ELIZABETH CITY CLEAR 78 72 81 SW12 29.95R KITTY HAWK PTCLDY 78 73 83 SW6 29.96S MANTEO PTCLDY 78 73 86 SW14 29.98S $$ NCZ045>047-081-094-103-104-040400- CENTRAL COAST CITY SKY/WX TMP DP RH WIND PRES REMARKS FRISCO MOCLDY 79 74 84 SW15G21 30.00R SWANQUARTER N/A 79 N/A N/A S17 29.94S $$ NCZ095-097-098-100-101-040400- SOUTHERN COAST CITY SKY/WX TMP DP RH WIND PRES REMARKS BEAUFORT CLOUDY 80 76 87 S10 29.99R CEDAR ISLAND N/A 79 N/A N/A S6G14 30.03S JACKSONVILLE CLOUDY 78 74 87 S5 29.98R PINEY ISLAND MOCLDY N/A N/A N/A S6 29.99R WILMINGTON CLOUDY 78 75 90 S5 29.98R $$ NCZ011>013-027>030-043-044-078>080-089-090>093-098-040400- COASTAL PLAIN CITY SKY/WX TMP DP RH WIND PRES REMARKS AHOSKIE CLEAR 78 71 80 S7 29.93S CLINTON CLEAR 76 74 96 CALM 29.97S ELIZABETHTOWN CLEAR 77 76 95 CALM 29.97S GOLDSBORO CLEAR 77 74 91 SE5 29.95R GREENVILLE CLEAR 77 73 88 S9 29.98S HAVELOCK MOCLDY 77 73 87 S3 29.99S KENANSVILLE CLEAR N/A N/A N/A CALM 29.98S KINSTON CLEAR 76 73 88 S6 29.98R NEW BERN PTCLDY 77 73 87 S6 29.99R RICHLANDS PTCLDY 75 70 83 CALM 29.98S ROCKY MOUNT CLEAR 80 71 74 S8 29.95R WASHINGTON CLEAR 75 72 89 S5 29.97S WHITEVILLE CLEAR 78 74 88 SE3 29.97R $$ AMZ130-135-150-152-154-156-158-170-250-252-270-ANZ085-086-088-633-658-670-040400- MARINE OBSERVATIONS STATION/POSITION TIME TEMP WIND PRES WAVE SWELL AIR SEA DIR/SP/G HT/PER HT/PER (UTC) (F) (DEG/KT/KT) (MB) (FT/S) (FT/S) CHESAPEAKE LIGHT 0300 79 200/ 20/ 21 1013.8 64 E VA BEACH 0250 80 81 210/ 21/ 25 1013.7 6/ 6 2/11 DUCK 0200 78 65 190/ 12/ 17 1013.4 2 E DUCK 0211 69 N/A 2/12 2/12 OREGON INLET 0200 79 81 190/ 20/ 22 1014.8 13E OREGON INLT 0300 79 N/A 5/ 5 2/11 HATTERAS CG 0200 79 79 180/ 7/ 16 1015.1 DIAMOND BUOY 0250 81 84 180/ 19/ 23 1015.7 5/ 6 2/ 8 CAPE LOOKOUT 0300 80 180/ 13/ 15 1015.6 BEAUFORT LAB 0200 81 80 200/ 14/ 16 1014.5 30 SE NEW RVR IN NOT AVBL 27 SE WRIGHTSVLE 0200 78 82 200/ 14/ 16 N/A 5 SE WRIGHTSVLE 0208 82 82 190/ 12/ 16 1014.9 225 S CAPE HAT 0250 82 81 170/ 12/ 14 1018.2 5/ 6 5/ 6 41 SE CHARLESTON 0250 83 83 170/ 17/ 19 1013.2 5/ 7 2/11 $$

USA.gov is the U.S. government's official web portal to all federal, state and local government web resources and services.